This is the latest recevied weather packets stored in our database for station/object EW2310. If no packets are shown the sender has not sent any weather packets the latest 10 day(s).
| Time | Temp. | Humidity | Pressure | Rain* | Wind** | Luminosity | Snow |
|---|---|---|---|---|---|---|---|
| 1777241141 | 15° C | 87% | 1017.7 hPa | 0 mm | - | 0 W/m² | - |
| 1777239941 | 15.56° C | 87% | 1017.8 hPa | 0 mm | - | 0 W/m² | - |
| 1777237841 | 15.56° C | 86% | 1017.9 hPa | 0 mm | - | 0 W/m² | - |
| 1777234544 | 16.11° C | 86% | 1017.9 hPa | 0 mm | - | 0 W/m² | - |
| 1777234241 | 16.11° C | 86% | 1017.9 hPa | 0 mm | - | 0 W/m² | - |
| 1777233944 | 16.11° C | 86% | 1017.9 hPa | 0 mm | - | 0 W/m² | - |
| 1777232741 | 16.11° C | 85% | 1017.7 hPa | 0 mm | - | 0 W/m² | - |
| 1777232142 | 16.11° C | 85% | 1017.6 hPa | 0 mm | - | 0 W/m² | - |
| 1777229741 | 16.67° C | 83% | 1017.1 hPa | 0 mm | - | 0 W/m² | - |
| 1777226441 | 17.22° C | 76% | 1016.9 hPa | 0 mm | - | 7 W/m² | - |
| 1777225841 | 17.78° C | 75% | 1016.7 hPa | 0 mm | - | 11 W/m² | - |
| 1777225541 | 17.78° C | 74% | 1016.7 hPa | 0 mm | - | 14 W/m² | - |
| 1777224641 | 17.78° C | 72% | 1016.6 hPa | 0 mm | - | 21 W/m² | - |
| 1777224041 | 18.33° C | 69% | 1016.6 hPa | 0 mm | - | 25 W/m² | - |
| 1777221041 | 19.44° C | 65% | 1016.6 hPa | 0 mm | - | 216 W/m² | - |
| 1777218641 | 19.44° C | 60% | 1016.6 hPa | 0 mm | - | 357 W/m² | - |
| 1777217141 | 20° C | 59% | 1016.5 hPa | 0 mm | - | 439 W/m² | - |
| 1777214741 | 20.56° C | 53% | 1016.5 hPa | 0 mm | - | 575 W/m² | - |
| 1777213544 | 21.11° C | 48% | 1016.4 hPa | 0 mm | - | 635 W/m² | - |
| 1777212341 | 21.11° C | 47% | 1016.4 hPa | 0 mm | - | 691 W/m² | - |
| 1777211441 | 21.11° C | 52% | 1016.5 hPa | 0 mm | - | 729 W/m² | - |
| 1777210241 | 21.11° C | 51% | 1016.6 hPa | 0 mm | - | 779 W/m² | - |
| 1777209041 | 21.11° C | 56% | 1016.8 hPa | 0 mm | - | 816 W/m² | - |
| 1777207841 | 21.11° C | 55% | 1017 hPa | 0 mm | - | 854 W/m² | - |
| 1777207541 | 21.11° C | 53% | 1017 hPa | 0 mm | - | 863 W/m² | - |
* Rain latest hour (hover to see other rain measurements)
** Current wind speed in m/s (hover to see current wind gust speed)